Weather History for Soldotna, AK

Change the Weather History Date:

Sunday, October 6, 2013

  Actual Average Record
Temperature  
Mean Temperature 42 °F -  
Max Temperature 48 °F 47 °F 57 °F (1993)
Min Temperature 35 °F 33 °F 13 °F (1958)
Degree Days  
Heating Degree Days 24    
Moisture  
Dew Point 36 °F    
Average Humidity 82    
Maximum Humidity 93    
Minimum Humidity 62    
Precipitation  
Precipitation 0.00 in - - ()
Sea Level Pressure  
Sea Level Pressure 29.70 in    
Wind  
Wind Speed 3 mph (South)    
Max Wind Speed 13 mph    
Max Gust Speed 17 mph    
Visibility 10 miles    
Events      
Averages and records for this station are not official NWS values.
T = Trace of Precipitation, MM = Missing Value Source: NWS Daily Summary

Daily Weather History Graph

Daily Weather History Graph

Search for Another Location

Airport:

Trip Planner

Search our weather history database for the weather conditions in past years. The results will help you decide how hot, cold, wet, or windy it might be!

Date:

Astronomy

Oct. 06, 2013 Rise Set
Actual Time 8:23 AM AKDT 7:19 PM AKDT
Civil Twilight 7:41 AM AKDT 8:01 PM AKDT
Nautical Twilight 6:52 AM AKDT 8:50 PM AKDT
Astronomical Twilight 6:01 AM AKDT 9:40 PM AKDT
Moon 10:58 AM AKDT (10/6) 7:42 PM AKDT (10/6)
Length of Visible Light 12h 20m
Length of Day
10h 56m
Waxing Crescent, 4% of the Moon is Illuminated
Oct 6
Waxing Crescent
Oct 11
First Quarter
Oct 18
Full
Oct 26
Last Quarter
Nov 3
New

Hourly Weather History & Observations

Time (AKDT) Temp. Windchill Dew Point Humidity Pressure Visibility Wind Dir Wind Speed Gust Speed Precip Events Conditions
12:16 AM 37.4 °F - 33.8 °F 87% 29.71 in 10.0 mi Calm Calm - N/A   Overcast
12:36 AM 37.4 °F - 33.8 °F 87% 29.70 in 10.0 mi Calm Calm - N/A   Overcast
12:56 AM 37.4 °F 34.9 °F 33.8 °F 87% 29.70 in 10.0 mi East 3.5 mph - N/A   Overcast
1:16 AM 37.4 °F - 33.8 °F 87% 29.71 in 10.0 mi Calm Calm - N/A   Overcast
1:36 AM 37.4 °F - 33.8 °F 87% 29.71 in 10.0 mi Calm Calm - N/A   Overcast
1:56 AM 37.4 °F - 33.8 °F 87% 29.71 in 10.0 mi Calm Calm - N/A   Overcast
2:16 AM 35.6 °F 30.7 °F 32.0 °F 87% 29.71 in 10.0 mi East 5.8 mph - N/A   Overcast
2:36 AM 37.4 °F - 33.8 °F 87% 29.71 in 10.0 mi Calm Calm - N/A   Overcast
2:56 AM 37.4 °F - 33.8 °F 87% 29.71 in 10.0 mi Calm Calm - N/A   Overcast
3:16 AM 37.4 °F 33.8 °F 33.8 °F 87% 29.71 in 10.0 mi East 4.6 mph - N/A   Overcast
3:36 AM 37.4 °F - 33.8 °F 87% 29.71 in 10.0 mi Calm Calm - N/A   Overcast
3:56 AM 37.4 °F 34.9 °F 33.8 °F 87% 29.71 in 10.0 mi East 3.5 mph - N/A   Overcast
4:16 AM 37.4 °F - 33.8 °F 87% 29.71 in 10.0 mi Calm Calm - N/A   Overcast
4:36 AM 37.4 °F - 33.8 °F 87% 29.70 in 10.0 mi Calm Calm - N/A   Overcast
4:56 AM 35.6 °F - 33.8 °F 93% 29.70 in 10.0 mi Calm Calm - N/A   Overcast
5:16 AM 35.6 °F - 33.8 °F 93% 29.70 in 10.0 mi Calm Calm - N/A   Overcast
5:36 AM 35.6 °F - 33.8 °F 93% 29.71 in 10.0 mi Calm Calm - N/A   Overcast
5:56 AM 35.6 °F - 33.8 °F 93% 29.71 in 10.0 mi Calm Calm - N/A   Overcast
6:16 AM 37.4 °F - 33.8 °F 87% 29.71 in 10.0 mi Calm Calm - N/A   Overcast
6:36 AM 37.4 °F 34.9 °F 33.8 °F 87% 29.71 in 10.0 mi ENE 3.5 mph - N/A   Overcast
6:56 AM 37.4 °F - 33.8 °F 87% 29.71 in 10.0 mi Calm Calm - N/A   Overcast
7:16 AM 35.6 °F - 33.8 °F 93% 29.72 in 10.0 mi Calm Calm - N/A   Overcast
7:36 AM 37.4 °F - 33.8 °F 87% 29.72 in 10.0 mi Calm Calm - N/A   Overcast
7:56 AM 37.4 °F 34.9 °F 33.8 °F 87% 29.71 in 10.0 mi East 3.5 mph - N/A   Overcast
8:16 AM 37.4 °F 34.9 °F 33.8 °F 87% 29.71 in 10.0 mi ESE 3.5 mph - N/A   Overcast
8:36 AM 37.4 °F - 33.8 °F 87% 29.72 in 10.0 mi Calm Calm - N/A   Overcast
8:56 AM 37.4 °F - 33.8 °F 87% 29.72 in 10.0 mi Calm Calm - N/A   Mostly Cloudy
9:16 AM 37.4 °F 33.8 °F 33.8 °F 87% 29.72 in 8.0 mi East 4.6 mph - N/A   Overcast
9:36 AM 37.4 °F - 35.6 °F 93% 29.72 in 10.0 mi Calm Calm - N/A   Overcast
9:56 AM 39.2 °F - 37.4 °F 93% 29.72 in 10.0 mi Calm Calm - N/A   Overcast
10:16 AM 39.2 °F - 37.4 °F 93% 29.72 in 10.0 mi Calm Calm - N/A   Overcast
10:36 AM 39.2 °F - 37.4 °F 93% 29.71 in 10.0 mi Calm Calm - N/A   Overcast
10:56 AM 41.0 °F - 37.4 °F 87% 29.71 in 10.0 mi Calm Calm - N/A   Overcast
11:16 AM 42.8 °F - 37.4 °F 81% 29.71 in 10.0 mi Calm Calm - N/A   Overcast
11:36 AM 42.8 °F 40.1 °F 37.4 °F 81% 29.71 in 10.0 mi SSE 4.6 mph - N/A   Overcast
11:56 AM 42.8 °F 39.3 °F 37.4 °F 81% 29.71 in 10.0 mi South 5.8 mph - N/A   Overcast
12:16 PM 42.8 °F 39.3 °F 37.4 °F 81% 29.71 in 7.0 mi South 5.8 mph - N/A   Overcast
12:36 PM 42.8 °F 39.3 °F 37.4 °F 81% 29.71 in 1.2 mi South 5.8 mph - N/A   Overcast
12:56 PM 42.8 °F 38.0 °F 39.2 °F 87% 29.71 in 3.0 mi South 8.1 mph - N/A   Overcast
1:16 PM 42.8 °F 40.1 °F 37.4 °F 81% 29.71 in 10.0 mi South 4.6 mph - N/A   Overcast
1:36 PM 42.8 °F - 39.2 °F 87% 29.71 in 4.0 mi Calm Calm - N/A   Overcast
1:56 PM 42.8 °F 40.1 °F 39.2 °F 87% 29.70 in 5.0 mi South 4.6 mph - N/A   Overcast
2:16 PM 44.6 °F 41.4 °F 39.2 °F 81% 29.70 in 3.0 mi SSW 5.8 mph - N/A   Overcast
2:36 PM 44.6 °F 41.4 °F 39.2 °F 81% 29.69 in 10.0 mi SSW 5.8 mph - N/A   Overcast
2:56 PM 44.6 °F 39.7 °F 39.2 °F 81% 29.69 in 10.0 mi SW 9.2 mph - N/A   Overcast
3:16 PM 44.6 °F 39.2 °F 41.0 °F 87% 29.68 in 10.0 mi South 10.4 mph - N/A   Overcast
3:36 PM 46.4 °F 41.1 °F 41.0 °F 81% 29.68 in 10.0 mi SSW 11.5 mph 16.1 mph N/A   Overcast
3:56 PM 46.4 °F 41.1 °F 39.2 °F 76% 29.68 in 10.0 mi SW 11.5 mph 16.1 mph N/A   Overcast
4:16 PM 46.4 °F 44.3 °F 39.2 °F 76% 29.68 in 10.0 mi SW 4.6 mph - N/A   Overcast
4:36 PM 46.4 °F 42.4 °F 39.2 °F 76% 29.67 in 10.0 mi SSW 8.1 mph - N/A   Mostly Cloudy
4:56 PM 46.4 °F 41.5 °F 39.2 °F 76% 29.67 in 10.0 mi SW 10.4 mph 17.3 mph N/A   Mostly Cloudy
5:16 PM 48.2 °F - 37.4 °F 66% 29.66 in 10.0 mi SW 11.5 mph 17.3 mph N/A   Partly Cloudy
5:36 PM 48.2 °F - 37.4 °F 66% 29.67 in 10.0 mi SW 10.4 mph 17.3 mph N/A   Clear
5:56 PM 48.2 °F - 35.6 °F 62% 29.67 in 10.0 mi SW 6.9 mph - N/A   Clear
6:16 PM 46.4 °F 41.5 °F 35.6 °F 66% 29.67 in 10.0 mi SW 10.4 mph - N/A   Clear
6:36 PM 46.4 °F 41.9 °F 35.6 °F 66% 29.67 in 10.0 mi SW 9.2 mph - N/A   Clear
6:56 PM 46.4 °F 43.5 °F 35.6 °F 66% 29.67 in 10.0 mi SSW 5.8 mph - N/A   Clear
7:16 PM 44.6 °F 40.7 °F 35.6 °F 71% 29.67 in 10.0 mi SSW 6.9 mph - N/A   Clear
7:36 PM 44.6 °F 40.7 °F 35.6 °F 71% 29.68 in 10.0 mi SSW 6.9 mph - N/A   Clear
7:56 PM 44.6 °F 40.2 °F 33.8 °F 66% 29.68 in 10.0 mi South 8.1 mph - N/A   Clear
8:16 PM 42.8 °F 38.0 °F 35.6 °F 76% 29.68 in 10.0 mi South 8.1 mph - N/A   Clear
8:36 PM 42.8 °F 37.5 °F 35.6 °F 76% 29.68 in 10.0 mi South 9.2 mph - N/A   Clear
8:56 PM 42.8 °F 37.0 °F 35.6 °F 76% 29.68 in 10.0 mi South 10.4 mph - N/A   Clear
9:16 PM 42.8 °F 36.2 °F 33.8 °F 70% 29.69 in 10.0 mi South 12.7 mph - N/A   Clear
9:36 PM 42.8 °F 36.2 °F 35.6 °F 76% 29.70 in 10.0 mi South 12.7 mph - N/A   Clear
9:56 PM 42.8 °F 37.0 °F 35.6 °F 76% 29.70 in 10.0 mi South 10.4 mph - N/A   Clear
10:16 PM 42.8 °F 36.6 °F 35.6 °F 76% 29.70 in 10.0 mi South 11.5 mph - N/A   Clear
10:36 PM 42.8 °F 38.0 °F 33.8 °F 70% 29.70 in 10.0 mi SSW 8.1 mph - N/A   Clear
10:56 PM 42.8 °F 36.6 °F 33.8 °F 70% 29.71 in 10.0 mi South 11.5 mph - N/A   Clear
11:16 PM 41.0 °F 34.7 °F 33.8 °F 76% 29.71 in 10.0 mi South 10.4 mph - N/A   Clear
11:36 PM 41.0 °F 34.3 °F 33.8 °F 76% 29.71 in 10.0 mi South 11.5 mph - N/A   Clear
11:56 PM 41.0 °F 34.7 °F 33.8 °F 76% 29.72 in 10.0 mi South 10.4 mph 16.1 mph N/A   Clear